Total_Precipitation_Accumulation
0.68 0.87 1.18 1.12 0.95 0.93 0.98 1.00 0.91 0.83 0.78 0.79 0.79 0.75 0.67 0.59 0.53 0.53 0.51 0.49 0.50 0.57 0.65 0.75 0.78 0.76 0.84 0.93 1.04 1.11 1.13 1.22 1.37 1.59 1.75 1.75 1.77 1.82 1.97 2.04 1.99 1.55 1.48
0.40 0.61 0.94 0.99 0.86 0.88 0.86 0.87 0.84 0.77 0.73 0.71 0.77 0.81 0.75 0.68 0.59 0.54 0.52 0.52 0.57 0.62 0.63 0.65 0.73 0.71 0.75 0.85 0.97 1.03 1.09 1.26 1.68 2.00 2.16 2.06 2.05 2.05 2.10 2.04 1.99 1.59 1.43
0.29 0.38 0.57 0.82 0.83 0.82 0.74 0.75 0.76 0.71 0.67 0.66 0.70 0.74 0.70 0.66 0.57 0.51 0.53 0.57 0.63 0.64 0.59 0.68 0.72 0.69 0.75 0.86 0.95 0.96 1.13 1.42 2.03 2.64 2.76 2.26 1.88 2.08 2.13 2.06 1.82 1.44 1.27
0.24 0.28 0.34 0.62 0.70 0.72 0.69 0.69 0.73 0.67 0.58 0.58 0.60 0.61 0.58 0.60 0.56 0.52 0.54 0.57 0.61 0.59 0.62 0.71 0.72 0.74 0.74 0.78 0.89 1.08 1.32 1.53 2.09 2.56 2.59 1.87 1.48 1.59 1.82 1.63 1.43 1.24 1.05
0.27 0.25 0.38 0.51 0.52 0.58 0.59 0.60 0.64 0.65 0.60 0.54 0.51 0.56 0.55 0.55 0.55 0.54 0.57 0.59 0.62 0.62 0.62 0.65 0.75 0.81 0.80 0.77 0.89 1.16 1.49 1.80 2.12 2.26 1.87 2.05 1.93 1.60 1.50 1.35 1.30 1.06 0.85
0.26 0.21 0.31 0.43 0.42 0.49 0.51 0.52 0.56 0.58 0.57 0.55 0.53 0.57 0.62 0.65 0.67 0.60 0.55 0.59 0.65 0.69 0.70 0.72 0.80 0.85 0.78 0.76 0.89 1.20 1.52 1.93 2.00 1.46 1.15 1.49 1.49 1.42 1.35 1.30 1.17 0.99 0.81
0.28 0.21 0.27 0.43 0.42 0.43 0.46 0.49 0.51 0.53 0.55 0.52 0.54 0.56 0.64 0.70 0.69 0.63 0.62 0.64 0.66 0.70 0.72 0.77 0.80 0.83 0.83 0.86 0.92 1.16 1.56 1.90 1.72 1.14 0.95 1.20 1.13 1.19 1.29 1.29 1.20 1.03 0.84
0.36 0.25 0.30 0.47 0.52 0.48 0.49 0.50 0.52 0.52 0.52 0.53 0.53 0.56 0.61 0.66 0.67 0.68 0.71 0.74 0.68 0.71 0.75 0.76 0.77 0.74 0.79 0.92 1.02 1.12 1.46 1.56 1.24 1.02 0.92 0.99 0.82 1.09 1.25 1.17 1.10 0.98 0.87
0.64 0.52 0.43 0.46 0.49 0.51 0.59 0.62 0.56 0.55 0.55 0.55 0.58 0.60 0.59 0.62 0.64 0.65 0.77 0.80 0.75 0.76 0.79 0.81 0.78 0.78 0.83 0.96 1.05 1.18 1.44 1.64 1.39 1.25 1.00 0.94 0.78 1.10 1.34 1.15 0.99 0.89 0.88
1.26 1.04 0.78 0.58 0.61 0.58 0.63 0.65 0.62 0.52 0.52 0.57 0.63 0.63 0.66 0.74 0.79 0.88 0.88 0.85 0.88 0.95 0.97 1.01 0.95 0.89 1.00 1.10 1.20 1.32 1.49 1.49 1.36 1.53 1.28 0.89 0.90 1.22 1.43 1.45 1.25 1.05 0.97
1.62 1.43 1.28 1.04 0.79 0.82 0.78 0.67 0.76 0.69 0.67 0.80 0.98 0.96 1.04 1.34 1.31 1.41 1.18 1.08 1.17 1.36 1.41 1.43 1.40 1.32 1.29 1.25 1.41 1.60 1.50 1.41 1.64 1.81 1.47 1.07 1.19 1.59 1.72 1.77 1.59 1.44 1.34
1.65 1.46 1.45 1.38 1.09 1.00 0.95 1.13 1.41 1.26 1.27 1.35 1.58 1.47 1.74 1.86 1.75 1.30 1.38 1.53 1.65 2.00 2.11 2.13 2.15 1.95 1.70 1.58 1.73 1.77 1.54 1.57 1.74 1.59 1.35 1.21 1.37 1.76 2.03 2.06 1.87 1.65 1.58
1.86 1.72 1.44 1.55 1.41 1.37 1.49 1.55 1.70 1.79 1.78 1.76 1.85 1.88 2.11 1.94 1.66 1.58 1.88 2.22 2.38 2.54 2.70 2.74 2.66 2.24 2.21 2.39 2.38 2.16 2.05 1.91 1.93 1.67 1.35 1.41 1.56 1.88 2.18 2.25 2.04 1.89 1.74
2.14 2.03 1.90 1.87 1.87 1.84 1.86 1.78 1.66 1.51 1.54 1.66 1.82 1.85 2.05 2.13 2.15 2.15 2.28 2.40 2.59 2.92 3.27 3.19 3.16 2.95 2.99 2.83 2.62 2.58 2.40 2.10 2.24 2.30 1.84 1.70 1.80 2.15 2.35 2.35 2.18 2.04 2.02
2.83 2.68 2.67 2.73 2.52 2.28 2.19 1.86 1.52 1.42 1.32 1.40 1.52 1.63 1.68 1.97 2.21 2.26 2.13 2.16 2.16 2.37 2.76 3.25 3.23 3.41 3.43 3.11 2.67 2.48 2.51 2.37 2.34 2.28 1.93 2.01 2.22 2.28 2.30 2.28 2.22 2.16 2.17
3.82 3.63 3.43 3.48 3.02 2.65 2.38 1.99 1.72 1.48 1.47 1.40 1.33 1.36 1.56 1.78 2.03 2.00 1.97 2.15 2.20 2.14 2.29 2.72 2.92 3.25 3.27 2.94 2.47 2.27 2.25 2.29 2.18 2.16 1.91 1.94 2.11 1.99 2.02 2.27 2.47 2.52 2.43
4.92 4.53 3.94 3.66 3.32 3.02 2.73 2.23 1.85 1.67 1.42 1.40 1.39 1.34 1.40 1.52 1.74 1.73 1.81 1.80 1.88 1.84 1.91 2.09 2.35 2.63 2.61 2.49 2.40 2.33 2.26 2.16 1.99 1.98 2.03 1.96 1.72 1.81 1.92 2.06 2.27 2.40 2.56
5.72 5.13 4.40 3.70 3.71 3.53 3.20 2.54 2.05 1.75 1.58 1.49 1.42 1.30 1.23 1.26 1.25 1.33 1.37 1.35 1.37 1.27 1.40 1.70 1.81 2.02 2.25 2.36 2.47 2.29 2.22 2.26 2.04 1.99 1.96 1.96 1.92 1.67 1.93 1.99 2.00 2.06 2.35
5.89 5.68 5.05 4.85 4.60 3.93 3.18 2.56 2.13 1.84 1.67 1.49 1.41 1.32 1.26 1.17 1.13 1.17 1.24 1.32 1.10 1.07 1.15 1.10 1.45 1.65 1.89 2.02 1.79 1.91 1.83 1.89 1.80 1.59 1.60 1.49 1.67 1.66 1.77 1.77 1.85 1.84 2.07
4.83 4.73 4.67 4.77 4.30 3.67 3.03 2.52 2.21 1.94 1.64 1.44 1.35 1.35 1.28 1.22 1.19 1.27 1.12 1.13 1.01 1.14 1.29 1.38 1.62 1.57 1.53 1.65 1.43 1.63 1.54 1.42 1.45 1.38 1.26 1.28 1.34 1.24 1.45 1.61 1.70 1.48 1.73
3.25 3.36 3.67 3.88 3.59 3.10 2.67 2.16 1.93 1.84 1.66 1.48 1.34 1.25 1.27 1.22 1.33 1.40 1.15 1.38 1.23 1.20 1.27 1.31 1.43 1.43 1.31 1.29 1.63 1.80 1.46 1.14 1.14 1.02 1.01 1.16 1.22 1.25 1.47 1.72 1.76 1.70 1.50
2.34 2.65 3.03 3.27 3.11 2.57 2.32 2.10 1.95 1.85 1.72 1.67 1.52 1.44 1.28 1.24 1.29 1.19 1.38 1.23 1.26 1.34 1.38 1.45 1.53 1.52 1.37 1.31 1.60 1.91 1.67 1.63 1.48 0.85 0.95 1.09 1.19 1.39 1.46 1.47 1.61 1.80 1.54
2.05 2.20 2.26 2.52 2.72 2.45 2.31 2.22 2.11 2.00 1.81 1.84 1.73 1.56 1.27 1.17 1.20 1.22 1.22 1.23 1.40 1.22 1.43 1.59 1.55 1.60 1.57 1.43 1.44 1.69 1.73 1.68 1.47 1.15 0.94 0.94 1.10 1.41 1.46 1.53 1.44 1.58 1.69
1.43 1.72 1.97 2.22 2.39 2.33 2.20 1.99 1.83 1.64 1.53 1.52 1.54 1.55 1.43 1.32 1.16 1.15 1.15 1.29 1.42 1.24 1.51 1.25 1.30 1.51 1.61 1.47 1.41 1.30 1.32 1.46 1.55 1.49 1.26 1.04 1.05 1.20 1.30 1.23 1.26 1.45 1.56
0.99 1.38 1.80 2.14 2.38 2.28 1.99 1.81 1.79 1.69 1.64 1.57 1.50 1.65 1.53 1.47 1.27 1.11 1.17 1.28 1.33 1.25 1.32 1.33 1.57 1.48 1.44 1.42 1.43 1.45 1.49 1.40 1.20 1.28 1.37 1.35 1.26 1.02 0.94 0.99 1.13 1.30 1.35
0.80 1.04 1.32 1.65 1.94 1.98 1.83 1.73 1.75 1.77 1.75 1.62 1.42 1.39 1.31 1.32 1.28 1.22 1.28 1.31 1.26 1.19 1.23 1.26 1.38 1.41 1.47 1.53 1.40 1.29 1.38 1.32 1.21 1.26 1.12 1.11 1.21 0.94 0.82 0.85 0.96 1.15 1.23